sat.trackr.live / text

‹ back to catalog

ONEWEB-0372

NORAD 49298 · 2021-090V

PAYLOAD ACTIVE UNKNOWN

§ Identity

Operator
Country
UK
Launch date
2021-10-14
Launch site
VOSTO
Launch vehicle
Mass (kg)
RCS (m²)

Purposes: comms

External: N2YO · Heavens-Above · Gunter

§ Orbital elements

Epoch: 2026-09-09T22:24:58.883040Z

Period
109.03 min
Inclination
87.9137°
Eccentricity
0.0002016
Mean motion
13.20770190 rev/d
Perigee alt
1,180.3 km
Apogee alt
1,183.3 km
Semi-major
7,559.9 km
B*
1.1631e-4
RAAN
257.5380°
Arg perigee
91.0281°
Mean anomaly
269.1083°
Rev number
24,102

§ Raw data

ONEWEB-03721 49298U 21090V   26252.93401485  .00000060  00000+0  11631-3 0  99952 49298  87.9137 257.5380 0002016  91.0281 269.1083 13.20770190241027

JSON: /api/v1/satellites/49298 · /tle

For live sub-satellite position, see the globe view (requires WebGL).

§ Visibility from observer

Set your observer location to see the next 7 days of passes ≥ 10°. The values pass through the URL so the page stays shareable.

No JS? Fill the form by hand. The geolocation button needs JavaScript.